This is the latest recevied weather packets stored in our database for station/object SV9TNF-2. If no packets are shown the sender has not sent any weather packets the latest 10 day(s).
| Time | Temp. | Humidity | Pressure | Rain* | Wind** | Luminosity | Snow |
|---|---|---|---|---|---|---|---|
| 1777913862 | 16.67° C | 61% | 1025.1 hPa | 0 mm | 10.28 m/s, 358° | - | - |
| 1777913561 | 16.67° C | 59% | 1025.1 hPa | 0 mm | 8.05 m/s, 358° | - | - |
| 1777913262 | 16.67° C | 58% | 1024.7 hPa | 0 mm | 8.05 m/s, 118° | - | - |
| 1777912961 | 16.67° C | 57% | 1024.7 hPa | 0 mm | 12.07 m/s, 321° | - | - |
| 1777912661 | 17.22° C | 59% | 1024.7 hPa | 0 mm | 11.62 m/s, 282° | - | - |
| 1777912362 | 17.78° C | 58% | 1024.7 hPa | 0 mm | 6.26 m/s, 292° | - | - |
| 1777912061 | 17.78° C | 56% | 1024.7 hPa | 0 mm | 7.15 m/s, 21° | - | - |
| 1777911761 | 17.78° C | 54% | 1025.1 hPa | 0 mm | 7.15 m/s, 6° | - | - |
| 1777911461 | 17.78° C | 56% | 1025.1 hPa | 0 mm | 7.6 m/s, 11° | - | - |
| 1777911161 | 17.78° C | 56% | 1025.1 hPa | 0 mm | 9.83 m/s, 96° | - | - |
| 1777910861 | 18.33° C | 55% | 1025.1 hPa | 0 mm | 3.58 m/s, 58° | - | - |
| 1777910561 | 18.33° C | 55% | 1025.1 hPa | 0 mm | 10.28 m/s, 37° | - | - |
| 1777910261 | 18.33° C | 55% | 1025.1 hPa | 0 mm | 4.92 m/s, 332° | - | - |
| 1777909960 | 18.33° C | 54% | 1025.1 hPa | 0 mm | 8.05 m/s, 311° | - | - |
| 1777909660 | 18.33° C | 51% | 1025.1 hPa | 0 mm | 9.83 m/s, 301° | - | - |
| 1777909360 | 18.33° C | 56% | 1025.1 hPa | 0 mm | 4.92 m/s, 258° | - | - |
| 1777909060 | 18.33° C | 56% | 1025.1 hPa | 0 mm | 7.15 m/s, 81° | - | - |
| 1777908760 | 18.33° C | 51% | 1025.1 hPa | 0 mm | 8.94 m/s, 331° | - | - |
| 1777908460 | 18.33° C | 51% | 1025.1 hPa | 0 mm | 7.6 m/s, 351° | - | - |
| 1777908160 | 18.33° C | 49% | 1025.1 hPa | 0 mm | 12.07 m/s, 297° | - | - |
| 1777907859 | 18.89° C | 45% | 1025.1 hPa | 0 mm | 4.02 m/s, 266° | - | - |
| 1777907560 | 19.44° C | 48% | 1025.1 hPa | 0 mm | 4.02 m/s, 23° | - | - |
| 1777907260 | 19.44° C | 44% | 1025.1 hPa | 0 mm | 8.49 m/s, 325° | - | - |
| 1777906959 | 19.44° C | 38% | 1025.1 hPa | 0 mm | 4.92 m/s, 24° | - | - |
| 1777906659 | 19.44° C | 38% | 1025.4 hPa | 0 mm | 5.36 m/s, 151° | - | - |
* Rain latest hour (hover to see other rain measurements)
** Current wind speed in m/s (hover to see current wind gust speed)